MUBLCOM

Satellite information

Favourite Embed

Satellite Type and Status

PAYLOADIN ORBIT

Key statistics

Satellite MUBLCOM at a glance.

Uptime

9650

Days in orbit

Revolutions

≈ 14.6

Per day

Orbit

SSO

Sun Synchronous Orbit

Inclination

97.7

Latest

Satellite identification and parameters

Extended collection of information and parameters for MUBLCOM.

Object identification

Identified? True

Debris? False

Object name: MUBLCOM

International designator: 1999-026B

Object number (NORAD): 25736

Object ID (CCSDS): 25736

Country: UNITED STATES OF AMERICA (US)

Current information (Y/N): Y

RCS size: LARGE

Orbital parameters

Period: 98.877 minutes

Inclination: 97.7119 deg

SMA: 7083.087 km

Apoapsis: 707.293 km

Periapsis: 702.612 km

RAAN: 164.0403 deg

Eccentricy: 0.00033045

Argument of periapsis: 285.5152 deg

Mean anomaly: 74.5683 deg

Mean motion: 14.56360446 rev/day

Mean motion (dot): 0.00002154 rev/day2

B* drag term: 0.00049500518 1/REarth

Two-line elements (TLE)

Creation date: Oct. 18, 2025, 2:17 a.m.

Reference frame: TEME

Reference center: EARTH

Epoch: Oct. 17, 2025, 9:18 p.m. UTC

TLE line 0: 0 MUBLCOM

TLE line 1: 1 25736U 99026B 25290.88789473 .00002154 00000-0 49501-3 0 9995

TLE line 2: 2 25736 97.7119 164.0403 0003305 285.5152 74.5683 14.56360446394565

Live tracking on map

Real-time ground track for satellite MUBLCOM.

In-orbit conjunctions

A list of the most updated potential collisions computed for object MUBLCOM.

Target Orbit TCA Probability of collision Miss distance Type
NOAA 17 DEB SSO 2025-08-10 19:24:49 0.0003938565 983.0 (m) DEBRIS
NOAA 16 DEB SSO 2025-04-20 14:05:08 0.0001405031 505.0 (m) DEBRIS
THOR ABLESTAR DEB LEO 2025-03-05 18:18:15 0.001082475 135.0 (m) DEBRIS
CZ-6A DEB SSO 2025-02-03 12:21:05 0.0002490348 221.0 (m) DEBRIS
COSMOS 2251 DEB LEO 2025-01-10 04:55:33 0.0001787083 198.0 (m) DEBRIS

Associated space launch

MUBLCOM was lifted into orbit during the mission ‘Pegasus XL HAPS | MUBLCOM & TERRIERS’, on board a Pegasus XL HAPS space rocket.

The launch took place on May 18, 1999, 5:09 a.m. from Vandenberg Space Force Base.

For more information about the launch, click the button.

Launch to space Pegasus XL HAPS | MUBLCOM & TERRIERS
Pegasus XL HAPS | MUBLCOM & TERRIERS

Agency: N/A

Status: Launch Successful

Launch date: May 18, 1999, 5:09 a.m. UTC

Rocket: Pegasus XL HAPS

Launch pad: Vandenberg Space Force Base

Location: Air launch to orbit

...

Latest news about this satellite

There are no fresh news available about this satellite. Check back as we update our databases every day.


Newsletter sign-up

Weekly statistics, charts and insights to help you stay on top of the space industry.